GW2019 Weather Reports


time (UTC)temp
C
wind
direction
speed
KPH
gust
KPH
rain 1hr
cm
rain 24hr
cm
rain mn
cm
humidity
%
barometer
mb
20260507163519 9 273 8.0 11.3 0.00 0.00 0.00 37 1015.0
20260507162519 8 294 8.0 12.9 0.00 0.00 0.00 37 1015.3
20260507160518 8 242 9.7 17.7 0.00 0.00 0.00 43 1015.3
20260507155519 7 333 9.7 11.3 0.00 0.00 0.00 42 1015.7
20260507153520 7 327 11.3 16.1 0.00 0.00 0.00 45 1015.3
20260507152619 7 213 9.7 14.5 0.00 0.00 0.00 43 1015.3
20260507151621 8 360 9.7 12.9 0.00 0.00 0.00 43 1015.3
20260507150619 8 291 8.0 14.5 0.00 0.00 0.00 44 1015.7
20260507145619 7 225 4.8 9.7 0.00 0.00 0.00 44 1015.7
20260507144518 7 271 3.2 12.9 0.00 0.00 0.00 46 1016.1
20260507143521 6 228 3.2 9.7 0.00 0.00 0.00 49 1016.4
20260507142519 6 309 8.0 11.3 0.00 0.00 0.00 50 1016.4
20260507141520 6 245 9.7 16.1 0.00 0.00 0.00 50 1016.4
20260507140518 6 328 9.7 11.3 0.00 0.00 0.00 55 1016.4
20260507134519 5 314 8.0 11.3 0.00 0.00 0.00 59 1016.4
20260507133518 5 279 8.0 12.9 0.00 0.00 0.00 60 1016.8
20260507132518 5 270 4.8 9.7 0.00 0.00 0.00 65 1017.1
20260507131617 3 270 4.8 9.7 0.00 0.00 0.00 69 1017.1
20260507130618 3 247 3.2 6.4 0.00 0.00 0.00 75 1017.4
20260507125619 2 225 3.2 6.4 0.00 0.00 0.00 78 1017.4
20260507124718 2 202 3.2 6.4 0.00 0.00 0.00 82 1017.4
20260507123817 2 202 0.0 0.0 0.00 0.00 0.00 85 1017.4
20260507121821 1 202 3.2 4.8 0.00 0.00 0.00 88 1017.8
20260507120821 0 202 0.0 0.0 0.00 0.00 0.00 87 1017.8
20260507115918 -1 202 0.0 0.0 0.00 0.00 0.00 86 1017.8
20260507114919 -1 202 0.0 0.0 0.00 0.00 0.00 86 1017.8
20260507114018 -1 202 1.6 4.8 0.00 0.00 0.00 86 1018.1
20260507113019 -1 202 1.6 3.2 0.00 0.00 0.00 86 1018.1
20260507112018 -1 202 0.0 0.0 0.00 0.00 0.00 86 1017.8
20260507111020 -1 202 0.0 0.0 0.00 0.00 0.00 86 1017.8
20260507110019 -2 202 0.0 0.0 0.00 0.00 0.00 87 1018.1
20260507105117 -2 202 0.0 0.0 0.00 0.00 0.00 87 1018.5
20260507104119 -2 202 0.0 0.0 0.00 0.00 0.00 86 1018.5
20260507103217 -2 202 0.0 0.0 0.00 0.00 0.00 85 1018.5
20260507102217 -2 202 0.0 0.0 0.00 0.00 0.00 84 1018.1
20260507101220 -2 202 1.6 3.2 0.00 0.00 0.00 85 1018.1
20260507100318 -2 202 3.2 4.8 0.00 0.00 0.00 85 1018.1
20260507095319 -2 202 3.2 4.8 0.00 0.00 0.00 84 1018.1
20260507093319 -2 202 3.2 4.8 0.00 0.00 0.00 83 1018.1
20260507092417 -2 202 3.2 6.4 0.00 0.00 0.00 83 1018.1
20260507091435 -2 202 3.2 6.4 0.00 0.00 0.00 84 1018.1
20260507090520 -2 202 4.8 6.4 0.00 0.00 0.00 82 1018.1
20260507085519 -1 202 3.2 6.4 0.00 0.00 0.00 84 1018.1
20260507084519 -2 202 3.2 6.4 0.00 0.00 0.00 83 1018.1
20260507083519 -1 202 3.2 4.8 0.00 0.00 0.00 82 1018.1
20260507082519 -1 202 4.8 6.4 0.00 0.00 0.00 82 1018.1
20260507080618 -1 202 1.6 3.2 0.00 0.00 0.00 83 1018.1
20260507075618 -1 202 1.6 3.2 0.00 0.00 0.00 81 1018.1
20260507074621 -1 202 1.6 3.2 0.00 0.00 0.00 81 1018.5
20260507073719 -1 202 3.2 4.8 0.00 0.00 0.00 81 1018.5
20260507072718 -1 202 3.2 4.8 0.00 0.00 0.00 80 1018.3
20260507071719 -1 202 4.8 6.4 0.00 0.00 0.00 79 1018.3
20260507070718 -1 202 3.2 4.8 0.00 0.00 0.00 79 1018.5
20260507065816 0 202 1.6 4.8 0.00 0.00 0.00 78 1018.5
20260507063918 0 202 3.2 4.8 0.00 0.00 0.00 78 1018.5
20260507062919 0 202 6.4 8.0 0.00 0.00 0.00 76 1018.5
20260507061917 0 202 4.8 8.0 0.00 0.00 0.00 75 1018.5
20260507060918 0 202 4.8 8.0 0.00 0.00 0.00 74 1018.5
20260507055920 0 202 3.2 4.8 0.00 0.00 0.00 74 1018.5
20260507053919 0 202 4.8 6.4 0.00 0.00 0.00 72 1018.5
20260507052018 0 202 3.2 4.8 0.00 0.00 0.00 71 1018.5
20260507051020 1 202 3.2 4.8 0.00 0.00 0.00 70 1018.5
20260507050032 1 202 1.6 3.2 0.00 0.00 0.00 68 1018.5
20260507045129 1 202 1.6 3.2 0.00 0.00 0.00 68 1018.5
20260507044129 1 202 4.8 6.4 0.00 0.00 0.00 67 1018.5
20260507043146 2 202 6.4 9.7 0.00 0.00 0.00 66 1018.5
20260507042230 2 202 1.6 3.2 0.00 0.00 0.00 65 1018.5
20260507040230 3 202 3.2 6.4 0.00 0.00 0.00 64 1018.5
20260507035329 3 202 1.6 4.8 0.00 0.00 0.00 64 1018.5
20260507034330 3 202 3.2 4.8 0.00 0.00 0.00 63 1018.5
20260507033429 3 247 0.0 0.0 0.00 0.00 0.00 63 1018.5
20260507032429 3 247 0.0 0.0 0.00 0.00 0.00 62 1018.5
20260507031430 2 270 0.0 0.0 0.00 0.00 0.00 63 1018.5
20260507030430 3 270 0.0 0.0 0.00 0.00 0.00 63 1018.5
20260507025430 3 292 0.0 0.0 0.00 0.00 0.00 63 1018.5
20260507024429 3 292 0.0 0.0 0.00 0.00 0.00 59 1018.8
20260507023430 3 292 0.0 0.0 0.00 0.00 0.00 60 1018.8
20260507022528 3 292 0.0 0.0 0.00 0.00 0.00 60 1018.8
20260507021531 3 292 0.0 0.0 0.00 0.00 0.00 57 1018.8
20260507020431 3 292 0.0 0.0 0.00 0.00 0.00 56 1018.8
20260507015432 3 292 0.0 0.0 0.00 0.00 0.00 55 1018.5
20260507013529 4 292 1.6 3.2 0.00 0.00 0.00 55 1018.5
20260507012529 4 292 0.0 1.6 0.00 0.00 0.00 55 1018.5
20260507011530 4 292 3.2 4.8 0.00 0.00 0.00 55 1018.5
20260507010530 4 292 6.4 9.7 0.00 0.00 0.00 54 1018.5
20260507005530 5 315 6.4 9.7 0.00 0.00 0.00 54 1018.5
20260507004529 5 270 6.4 11.3 0.00 0.00 0.00 53 1018.5
20260507003529 5 299 9.7 12.9 0.00 0.00 0.00 53 1018.5
20260507002530 5 298 12.9 16.1 0.00 0.00 0.00 52 1018.5
20260507001530 5 315 6.4 12.9 0.00 0.00 0.00 53 1018.5
20260507000531 5 315 11.3 14.5 0.00 0.00 0.00 52 1018.5
20260506235629 5 284 8.0 14.5 0.00 0.00 0.00 51 1018.5
20260506234631 5 273 8.0 14.5 0.00 0.00 0.00 51 1018.5
20260506233729 5 275 6.4 11.3 0.00 0.00 0.00 52 1018.5
20260506232828 5 276 8.0 14.5 0.00 0.00 0.00 51 1018.5
20260506231828 5 274 9.7 16.1 0.00 0.00 0.00 50 1018.5
20260506230829 5 272 12.9 22.5 0.00 0.00 0.00 52 1018.5
20260506225830 5 298 12.9 19.3 0.00 0.00 0.00 51 1018.5
20260506224930 5 268 12.9 19.3 0.00 0.00 0.00 52 1018.8
20260506223929 5 261 11.3 14.5 0.00 0.00 0.00 52 1018.8
20260506222929 5 269 14.5 19.3 0.00 0.00 0.00 52 1018.5
20260506221930 5 269 12.9 17.7 0.00 0.00 0.00 51 1018.8
20260506220932 5 271 16.1 22.5 0.00 0.00 0.00 51 1018.8
20260506215930 5 270 12.9 20.9 0.00 0.00 0.00 51 1018.8
20260506214929 5 296 12.9 20.9 0.00 0.00 0.00 52 1018.8
20260506214029 5 276 11.3 14.5 0.00 0.00 0.00 52 1018.8
20260506212029 5 254 16.1 25.7 0.00 0.00 0.00 50 1019.2
20260506211030 5 254 11.3 20.9 0.00 0.00 0.00 51 1018.8
20260506205028 5 311 17.7 24.1 0.00 0.00 0.00 50 1019.2
20260506204028 5 298 11.3 20.9 0.00 0.00 0.00 52 1019.2
20260506203030 5 298 11.3 19.3 0.00 0.00 0.00 54 1019.2
20260506202029 5 282 11.3 24.1 0.00 0.00 0.00 53 1019.5
20260506201030 4 296 11.3 19.3 0.00 0.00 0.00 54 1019.2
20260506195029 5 274 14.5 19.3 0.00 0.00 0.00 54 1019.5
20260506194030 5 305 12.9 20.9 0.00 0.00 0.00 54 1019.5
20260506193028 4 273 14.5 19.3 0.00 0.00 0.00 54 1019.5
20260506192029 5 274 11.3 16.1 0.00 0.00 0.00 54 1019.5
20260506191029 5 297 12.9 19.3 0.00 0.00 0.00 54 1019.5
20260506185029 4 300 11.3 19.3 0.00 0.00 0.00 56 1019.5
20260506184128 4 276 11.3 16.1 0.00 0.00 0.00 56 1019.5
20260506183130 4 288 11.3 16.1 0.00 0.00 0.00 56 1019.5
20260506182129 4 318 11.3 16.1 0.00 0.00 0.00 58 1019.5
20260506180128 3 277 9.7 14.5 0.00 0.00 0.00 57 1019.9
20260506175129 3 263 12.9 19.3 0.00 0.00 0.00 57 1019.9
20260506174130 3 307 14.5 20.9 0.00 0.00 0.00 58 1019.9
20260506173128 3 281 12.9 19.3 0.00 0.00 0.00 58 1019.5
20260506172129 3 308 12.9 20.9 0.00 0.00 0.00 58 1019.9
20260506171146 3 304 11.3 19.3 0.00 0.00 0.00 57 1019.9
20260506170228 3 308 16.1 24.1 0.00 0.00 0.00 58 1019.9
20260506165230 3 304 14.5 22.5 0.00 0.00 0.00 55 1019.9